Lorain / Elyria, OH

8:48 PM EDT on September 19, 2017 (GMT -0400)
Lorain County Regional

Weather History for KLPR - April, 2014

Change the Weather History Date:

Saturday, April 26, 2014

  Actual Average (KCLE) Record (KCLE)
Temperature  
Mean Temperature 48 °F -  
Max Temperature 59 °F 61 °F 87 °F (1948)
Min Temperature 39 °F 40 °F 26 °F (1972)
Degree Days  
Heating Degree Days 17    
Moisture  
Dew Point 37 °F    
Average Humidity 63    
Maximum Humidity 86    
Minimum Humidity 36    
Precipitation  
Precipitation 0.00 in - - ()
Sea Level Pressure  
Sea Level Pressure 29.93 in    
Wind  
Wind Speed 10 mph (NNW)    
Max Wind Speed 18 mph    
Max Gust Speed 25 mph    
Visibility 9 miles    
Events      
Averages and records for this station are not official NWS values.
T = Trace of Precipitation, MM = Missing Value Source: NWS Daily Summary

Daily Weather History Graph

Daily Weather History Graph

Search for Another Location

Airport or City:

Trip Planner

Search our weather history database for the weather conditions in past years. The results will help you decide how hot, cold, wet, or windy it might be!

Date:

Astronomy

Apr. 26, 2014 Rise Set
Actual Time 6:32 AM EDT 8:20 PM EDT
Civil Twilight 6:03 AM EDT 8:50 PM EDT
Nautical Twilight 5:27 AM EDT 9:26 PM EDT
Astronomical Twilight 4:48 AM EDT 10:05 PM EDT
Moon 4:58 AM EDT (4/26) 5:46 PM EDT (4/26)
Length of Visible Light 14h 47m
Length of Day
13h 47m
Waning Crescent, 8% of the Moon is Illuminated
Apr 26
Waning Crescent
Apr 29
New
May 6
First Quarter
May 14
Full
May 21
Last Quarter

Hourly Weather History & Observations

Time (EDT) Temp. Windchill Dew Point Humidity Pressure Visibility Wind Dir Wind Speed Gust Speed Precip Events Conditions
12:53 AM 45.0 °F 42.6 °F 41.0 °F 86% 29.87 in 3.0 mi SSW 4.6 mph - N/A   Scattered Clouds
1:53 AM 44.1 °F 40.8 °F 39.9 °F 85% 29.86 in 4.0 mi SW 5.8 mph - N/A   Partly Cloudy
2:53 AM 46.0 °F 44.8 °F 39.9 °F 79% 29.84 in 8.0 mi SSW 3.5 mph - N/A   Overcast
3:53 AM 48.0 °F - 41.0 °F 77% 29.82 in 10.0 mi SSW 8.1 mph - N/A   Overcast
4:53 AM 50.0 °F - 39.9 °F 68% 29.81 in 10.0 mi SSW 9.2 mph - N/A   Mostly Cloudy
5:53 AM 48.0 °F - 39.9 °F 74% 29.81 in 10.0 mi SW 8.1 mph - N/A   Mostly Cloudy
6:53 AM 50.0 °F - 41.0 °F 71% 29.82 in 10.0 mi WSW 9.2 mph - N/A   Mostly Cloudy
7:53 AM 53.1 °F - 42.1 °F 66% 29.82 in 10.0 mi WSW 12.7 mph - N/A   Overcast
8:53 AM 57.0 °F - 44.1 °F 62% 29.84 in 10.0 mi WNW 11.5 mph - N/A   Partly Cloudy
9:53 AM 55.9 °F - 39.9 °F 55% 29.87 in 10.0 mi NW 17.3 mph 25.3 mph N/A   Scattered Clouds
10:53 AM 57.0 °F - 36.0 °F 45% 29.88 in 10.0 mi NNW 18.4 mph 24.2 mph N/A   Clear
11:53 AM 57.0 °F - 35.1 °F 44% 29.91 in 10.0 mi NNW 17.3 mph 25.3 mph N/A   Clear
12:53 PM 57.0 °F - 35.1 °F 44% 29.93 in 10.0 mi NW 15.0 mph 23.0 mph N/A   Clear
2:53 PM 57.9 °F - 30.9 °F 36% 29.93 in 10.0 mi NNW 15.0 mph 25.3 mph N/A   Clear
3:53 PM 57.0 °F - 36.0 °F 45% 29.96 in 10.0 mi NE 16.1 mph - N/A   Clear
4:53 PM 55.0 °F - 33.1 °F 43% 29.99 in 10.0 mi NNE 18.4 mph 24.2 mph N/A   Clear
5:53 PM 54.0 °F - 33.1 °F 45% 30.00 in 10.0 mi NE 15.0 mph - N/A   Clear
6:53 PM 51.1 °F - 35.1 °F 54% 30.01 in 10.0 mi NNE 17.3 mph - N/A   Clear
7:53 PM 46.9 °F - 35.1 °F 63% 30.04 in 10.0 mi ENE 11.5 mph - N/A   Clear
8:53 PM 44.1 °F 36.8 °F 35.1 °F 71% 30.06 in 10.0 mi NE 16.1 mph - N/A   Clear
9:53 PM 42.1 °F 34.9 °F 34.0 °F 73% 30.09 in 10.0 mi ENE 13.8 mph - N/A   Clear
10:53 PM 39.9 °F 33.4 °F 33.1 °F 77% 30.10 in 10.0 mi NE 10.4 mph - N/A   Clear
11:53 PM 39.9 °F 32.5 °F 33.1 °F 77% 30.11 in 10.0 mi ENE 12.7 mph - N/A   Mostly Cloudy